• en France
  • Liste des pays
  • À 7 jours
  • Température de l'eau
  • Carte satellitaire
  • Carte météo
  • Widgets météo
  • user-avatar
    Se connecter

    Météo par heure à Impfondo

    Ce jour, 25 Mai, Vendredi

    Heure Température Précipitation Vent Pression Humidité
    00:00 +25°C° 0 mm 1 m/s 730 mmHg 91%
    01:00 +25°C° 0 mm 1 m/s 730 mmHg 92%
    02:00 +24°C° 0 mm 1 m/s 730 mmHg 93%
    03:00 +24°C° 0 mm 1 m/s 730 mmHg 94%
    04:00 +24°C° 0 mm 1 m/s 730 mmHg 95%
    05:00 +24°C° 0 mm 1 m/s 731 mmHg 91%
    06:00 +25°C° 0 mm 1 m/s 731 mmHg 88%
    07:00 +26°C° 0 mm 1 m/s 731 mmHg 83%
    08:00 +28°C° 0 mm 1 m/s 731 mmHg 72%
    09:00 +31°C° 0 mm 1 m/s 731 mmHg 61%
    10:00 +34°C° 0 mm 2 m/s 731 mmHg 50%
    11:00 +35°C° 0 mm 2 m/s 731 mmHg 47%
    12:00 +36°C° 0 mm 2 m/s 730 mmHg 44%
    13:00 +35°C° 0 mm 2 m/s 730 mmHg 47%
    14:00 +34°C° 0 mm 1 m/s 729 mmHg 48%
    15:00 +34°C° 0 mm 1 m/s 729 mmHg 48%
    16:00 +34°C° 0 mm 1 m/s 729 mmHg 49%
    17:00 +32°C° 0 mm 1 m/s 730 mmHg 55%
    18:00 +30°C° 0 mm 1 m/s 730 mmHg 62%
    19:00 +28°C° 0 mm 1 m/s 730 mmHg 69%
    20:00 +27°C° 0,7 mm 1 m/s 730 mmHg 75%
    21:00 +26°C° 0,7 mm 1 m/s 731 mmHg 81%
    22:00 +23°C° 0,7 mm 0 m/s 731 mmHg 87%
    23:00 +25°C° 0,1 mm 1 m/s 731 mmHg 88%

    Demain, 26 Mai, Samedi

    Heure Température Précipitation Vent Pression Humidité
    00:00 +25°C° 0,1 mm 1 m/s 731 mmHg 90%
    01:00 +24°C° 0,1 mm 1 m/s 730 mmHg 91%
    02:00 +24°C° 0 mm 1 m/s 730 mmHg 91%
    03:00 +22°C° 0 mm 0 m/s 730 mmHg 91%
    04:00 +22°C° 0 mm 0 m/s 730 mmHg 91%
    05:00 +23°C° 0 mm 0 m/s 731 mmHg 90%
    06:00 +23°C° 0 mm 0 m/s 731 mmHg 89%
    07:00 +23°C° 0 mm 0 m/s 731 mmHg 88%
    08:00 +26°C° 0,2 mm 0 m/s 732 mmHg 78%
    09:00 +28°C° 0,2 mm 0 m/s 732 mmHg 69%
    10:00 +32°C° 0,2 mm 1 m/s 732 mmHg 59%
    11:00 +33°C° 0,5 mm 1 m/s 731 mmHg 56%
    12:00 +33°C° 0,5 mm 1 m/s 731 mmHg 53%
    13:00 +34°C° 0,5 mm 1 m/s 730 mmHg 50%
    14:00 +33°C° 0,3 mm 1 m/s 730 mmHg 52%
    15:00 +33°C° 0,3 mm 1 m/s 730 mmHg 55%
    16:00 +32°C° 0,3 mm 1 m/s 729 mmHg 57%
    17:00 +31°C° 0 mm 1 m/s 730 mmHg 65%
    18:00 +29°C° 0 mm 1 m/s 730 mmHg 72%
    19:00 +27°C° 0 mm 1 m/s 730 mmHg 80%
    20:00 +27°C° 0,2 mm 1 m/s 731 mmHg 82%
    21:00 +26°C° 0,2 mm 1 m/s 731 mmHg 84%
    22:00 +26°C° 0,2 mm 1 m/s 731 mmHg 86%
    23:00 +25°C° 0,1 mm 1 m/s 731 mmHg 87%

    Après-demain, 27 Mai, Dimanche

    Heure Température Précipitation Vent Pression Humidité
    00:00 +25°C° 0,1 mm 1 m/s 731 mmHg 87%
    01:00 +23°C° 0,1 mm 0 m/s 731 mmHg 88%
    02:00 +23°C° 0,3 mm 0 m/s 731 mmHg 89%
    03:00 +23°C° 0,3 mm 0 m/s 731 mmHg 90%
    04:00 +22°C° 0,3 mm 0 m/s 731 mmHg 91%
    05:00 +23°C° 0,1 mm 0 m/s 731 mmHg 90%
    06:00 +25°C° 0,1 mm 1 m/s 732 mmHg 88%
    07:00 +25°C° 0,1 mm 1 m/s 732 mmHg 87%
    08:00 +26°C° 0,2 mm 1 m/s 732 mmHg 84%
    09:00 +27°C° 0,2 mm 1 m/s 732 mmHg 80%
    10:00 +28°C° 0,2 mm 1 m/s 733 mmHg 76%
    11:00 +29°C° 0,1 mm 1 m/s 732 mmHg 69%
    12:00 +31°C° 0,1 mm 1 m/s 731 mmHg 62%
    13:00 +32°C° 0,1 mm 1 m/s 731 mmHg 55%
    14:00 +32°C° 0 mm 1 m/s 730 mmHg 53%
    15:00 +33°C° 0 mm 1 m/s 730 mmHg 50%
    16:00 +33°C° 0 mm 1 m/s 729 mmHg 47%
    17:00 +31°C° 0 mm 1 m/s 730 mmHg 54%
    18:00 +29°C° 0 mm 1 m/s 730 mmHg 62%
    19:00 +27°C° 0 mm 1 m/s 731 mmHg 69%
    20:00 +27°C° 0 mm 1 m/s 731 mmHg 71%
    21:00 +26°C° 0 mm 1 m/s 732 mmHg 72%
    22:00 +26°C° 0 mm 1 m/s 732 mmHg 74%
    23:00 +25°C° 0 mm 1 m/s 732 mmHg 78%

    28 Mai, Lundi

    Heure Température Précipitation Vent Pression Humidité
    00:00 +25°C° 0 mm 1 m/s 732 mmHg 82%
    01:00 +24°C° 0 mm 1 m/s 731 mmHg 86%
    02:00 +24°C° 0 mm 1 m/s 731 mmHg 88%
    03:00 +24°C° 0 mm 1 m/s 731 mmHg 90%
    04:00 +23°C° 0 mm 1 m/s 731 mmHg 93%
    05:00 +24°C° 0 mm 1 m/s 732 mmHg 89%
    06:00 +25°C° 0 mm 1 m/s 733 mmHg 86%
    07:00 +26°C° 0 mm 1 m/s 733 mmHg 83%
    08:00 +28°C° 0 mm 1 m/s 733 mmHg 72%
    09:00 +31°C° 0 mm 1 m/s 734 mmHg 62%
    10:00 +33°C° 0 mm 1 m/s 734 mmHg 52%
    11:00 +34°C° 0,2 mm 1 m/s 733 mmHg 49%
    12:00 +35°C° 0,2 mm 1 m/s 732 mmHg 46%
    13:00 +36°C° 0,2 mm 1 m/s 731 mmHg 44%
    14:00 +35°C° 0 mm 1 m/s 731 mmHg 47%
    15:00 +34°C° 0 mm 1 m/s 730 mmHg 51%
    16:00 +33°C° 0 mm 1 m/s 730 mmHg 55%
    17:00 +31°C° 0 mm 1 m/s 730 mmHg 61%
    18:00 +30°C° 0 mm 1 m/s 731 mmHg 67%
    19:00 +28°C° 0 mm 1 m/s 731 mmHg 73%
    20:00 +27°C° 0,5 mm 1 m/s 731 mmHg 80%
    21:00 +26°C° 0,5 mm 1 m/s 732 mmHg 86%
    22:00 +25°C° 0,5 mm 1 m/s 732 mmHg 93%
    23:00 +25°C° 0,4 mm 1 m/s 732 mmHg 93%

    29 Mai, Mardi

    Heure Température Précipitation Vent Pression Humidité
    00:00 +24°C° 0,4 mm 1 m/s 731 mmHg 94%
    01:00 +24°C° 0,4 mm 1 m/s 731 mmHg 95%
    02:00 +24°C° 0 mm 1 m/s 731 mmHg 95%
    03:00 +24°C° 0 mm 1 m/s 731 mmHg 96%
    04:00 +24°C° 0 mm 1 m/s 731 mmHg 96%
    05:00 +24°C° 0 mm 1 m/s 731 mmHg 95%
    06:00 +25°C° 0 mm 1 m/s 732 mmHg 93%
    07:00 +25°C° 0 mm 1 m/s 733 mmHg 92%
    08:00 +27°C° 0,2 mm 1 m/s 733 mmHg 84%
    09:00 +29°C° 0,2 mm 1 m/s 733 mmHg 75%
    10:00 +30°C° 0,2 mm 1 m/s 734 mmHg 67%
    11:00 +31°C° 0,5 mm 1 m/s 733 mmHg 63%
    12:00 +33°C° 0,5 mm 1 m/s 732 mmHg 58%
    13:00 +34°C° 0,5 mm 1 m/s 731 mmHg 53%
    14:00 +34°C° 0,1 mm 1 m/s 730 mmHg 53%
    15:00 +34°C° 0,1 mm 1 m/s 730 mmHg 52%
    16:00 +32°C° 0,1 mm 0 m/s 729 mmHg 51%
    17:00 +32°C° 0,2 mm 1 m/s 730 mmHg 58%
    18:00 +30°C° 0,2 mm 1 m/s 730 mmHg 65%
    19:00 +28°C° 0,2 mm 1 m/s 731 mmHg 72%
    20:00 +27°C° 1,4 mm 1 m/s 731 mmHg 79%
    21:00 +26°C° 1,4 mm 1 m/s 731 mmHg 86%
    22:00 +25°C° 1,4 mm 1 m/s 731 mmHg 93%
    23:00 +25°C° 0,4 mm 1 m/s 731 mmHg 93%

    30 Mai, Mercredi

    Heure Température Précipitation Vent Pression Humidité
    00:00 +25°C° 0,4 mm 1 m/s 731 mmHg 94%
    01:00 +23°C° 0,4 mm 0 m/s 731 mmHg 95%
    02:00 +23°C° 0,8 mm 0 m/s 731 mmHg 95%
    03:00 +23°C° 0,8 mm 0 m/s 731 mmHg 95%
    04:00 +22°C° 0,8 mm 0 m/s 731 mmHg 95%
    05:00 +23°C° 0,1 mm 0 m/s 732 mmHg 95%
    06:00 +23°C° 0,1 mm 0 m/s 732 mmHg 95%
    07:00 +23°C° 0,1 mm 0 m/s 733 mmHg 94%
    08:00 +26°C° 0,2 mm 1 m/s 733 mmHg 91%
    09:00 +27°C° 0,2 mm 1 m/s 733 mmHg 87%
    10:00 +27°C° 0,2 mm 1 m/s 734 mmHg 83%
    11:00 +29°C° 0,2 mm 1 m/s 733 mmHg 76%
    12:00 +30°C° 0,2 mm 1 m/s 732 mmHg 69%
    13:00 +31°C° 0,2 mm 1 m/s 732 mmHg 61%
    14:00 +31°C° 0 mm 1 m/s 731 mmHg 62%
    15:00 +31°C° 0 mm 1 m/s 731 mmHg 62%
    16:00 +31°C° 0 mm 1 m/s 730 mmHg 62%
    17:00 +30°C° 0 mm 1 m/s 731 mmHg 68%
    18:00 +28°C° 0 mm 1 m/s 731 mmHg 74%
    19:00 +27°C° 0 mm 1 m/s 732 mmHg 81%
    20:00 +26°C° 0,1 mm 1 m/s 732 mmHg 83%
    21:00 +26°C° 0,1 mm 1 m/s 732 mmHg 86%
    22:00 +25°C° 0,1 mm 1 m/s 732 mmHg 89%
    23:00 +25°C° 0 mm 1 m/s 732 mmHg 91%
    Voir plus